Location: Mauries
(43.6188°N, 0.3322°W)
Time: 11:34:31
(UTC+00:00)

Envisat - Pass Details

Date: 17 March 2026
Orbit: 761 x 762 km, 98.4° (Epoch: 14 April)

Event Time Altitude Azimuth Distance (km) Brightness Sun altitude
Rises 03:08:01 0° 9° (N) 3,234 6.8 -32.2°
Reaches altitude 10° 03:10:21 10° 5° (N) 2,304 5.9 -31.8°
Enters shadow 03:12:49 28° 354° (N) 1,397 4.5 -31.4°
